sat.trackr.live / text

‹ back to catalog

STARLINK-11351 [DTC]

NORAD 61886 · 2024-204N

PAYLOAD ACTIVE UNKNOWN

§ Identity

Operator
Country
US
Launch date
2024-11-09
Launch site
AFWTR
Launch vehicle
Mass (kg)
RCS (m²)

Purposes: comms

External: N2YO · Heavens-Above · Gunter

§ Orbital elements

Epoch: 2026-09-21T19:46:50.989728Z

Period
91.74 min
Inclination
53.1587°
Eccentricity
0.0000971
Mean motion
15.69706041 rev/d
Perigee alt
359.1 km
Apogee alt
360.4 km
Semi-major
6,737.9 km
B*
1.6406e-6
RAAN
109.1028°
Arg perigee
74.3902°
Mean anomaly
285.7223°
Rev number
10,772

§ Raw data

STARLINK-11351 [DTC]1 61886U 24204N   26264.82420127 -.00000390  00000+0  16406-5 0  99912 61886  53.1587 109.1028 0000971  74.3902 285.7223 15.69706041107728

JSON: /api/v1/satellites/61886 · /tle

For live sub-satellite position, see the globe view (requires WebGL).

§ Visibility from observer

Set your observer location to see the next 7 days of passes ≥ 10°. The values pass through the URL so the page stays shareable.

No JS? Fill the form by hand. The geolocation button needs JavaScript.